Location: Gu�tanj
(46.5431°N, 14.9692°E)
Time: 22:47:27
(UTC+00:00)

X-37B - Pass Details

Date: 27 September 2021
Orbit: 385 x 389 km, 45.0° (Epoch: 17 October)

Event Time Altitude Azimuth Distance (km) Brightness Sun altitude
Exits shadow 03:21:50 46° 231° (SW) 530 0.8 -16.4°
Maximum altitude 03:22:32 63° 174° (S) 436 0.7 -16.3°
Drops below altitude 10° 03:25:42 10° 92° (E) 1,415 4.6 -15.8°
Sets 03:27:47 0° 89° (E) 2,271 6.1 -15.4°
